When you browse on this site, cookies collect data to enhance your experience and personalize the content and advertising you see.
Visit our Privacy Policy to learn more. By continuing to use the site, you agree to this use of cookies and data.

Hourly Weather Siempang

Today, 13 August, Thursday

Time Temperature Precipitation Wind Pressure Humidity
00:00 +24°C° 0.9 mm 0 mps 751 mmHg 97%
01:00 +24°C° 0 mm 0 mps 751 mmHg 98%
02:00 +24°C° 1.9 mm 0 mps 750 mmHg 98%
03:00 +26°C° 1.9 mm 1 mps 750 mmHg 99%
04:00 +26°C° 1.9 mm 1 mps 750 mmHg 99%
05:00 +26°C° 2.3 mm 1 mps 750 mmHg 99%
06:00 +26°C° 2.3 mm 1 mps 750 mmHg 99%
07:00 +26°C° 2.3 mm 1 mps 751 mmHg 99%
08:00 +26°C° 3.6 mm 1 mps 751 mmHg 98%
09:00 +26°C° 3.6 mm 1 mps 751 mmHg 98%
10:00 +26°C° 3.6 mm 1 mps 751 mmHg 97%
11:00 +28°C° 0.2 mm 1 mps 751 mmHg 90%
12:00 +28°C° 0.2 mm 0 mps 750 mmHg 82%
13:00 +29°C° 0.2 mm 0 mps 750 mmHg 75%
14:00 +29°C° 1.5 mm 0 mps 749 mmHg 81%
15:00 +28°C° 1.5 mm 0 mps 749 mmHg 88%
16:00 +27°C° 1.5 mm 0 mps 748 mmHg 94%
17:00 +28°C° 2.4 mm 1 mps 749 mmHg 95%
18:00 +27°C° 2.4 mm 1 mps 749 mmHg 97%
19:00 +26°C° 2.4 mm 1 mps 749 mmHg 98%
20:00 +26°C° 1 mm 1 mps 750 mmHg 98%
21:00 +26°C° 1 mm 1 mps 751 mmHg 98%
22:00 +26°C° 1 mm 2 mps 751 mmHg 98%
23:00 +26°C° 1.7 mm 1 mps 751 mmHg 98%

Tomorrow, 14 August, Friday

Time Temperature Precipitation Wind Pressure Humidity
00:00 +25°C° 1.7 mm 1 mps 751 mmHg 99%
01:00 +25°C° 1.7 mm 1 mps 751 mmHg 99%
02:00 +25°C° 2 mm 1 mps 750 mmHg 99%
03:00 +25°C° 2 mm 1 mps 750 mmHg 99%
04:00 +23°C° 2 mm 0 mps 750 mmHg 99%
05:00 +23°C° 0.8 mm 0 mps 750 mmHg 99%
06:00 +23°C° 0.8 mm 0 mps 751 mmHg 99%
07:00 +25°C° 0.8 mm 1 mps 751 mmHg 99%
08:00 +24°C° 0.4 mm 0 mps 751 mmHg 98%
09:00 +24°C° 0.4 mm 0 mps 751 mmHg 98%
10:00 +24°C° 0.4 mm 0 mps 752 mmHg 98%
11:00 +24°C° 0.1 mm 0 mps 751 mmHg 97%
12:00 +25°C° 0.1 mm 0 mps 751 mmHg 95%
13:00 +25°C° 0.1 mm 0 mps 750 mmHg 94%
14:00 +25°C° 0.4 mm 0 mps 750 mmHg 95%
15:00 +25°C° 0.4 mm 0 mps 750 mmHg 96%
16:00 +25°C° 0.4 mm 0 mps 749 mmHg 96%
17:00 +25°C° 0.4 mm 0 mps 750 mmHg 97%
18:00 +24°C° 0.4 mm 0 mps 750 mmHg 97%
19:00 +24°C° 0.4 mm 0 mps 750 mmHg 98%
20:00 +23°C° 0 mm 0 mps 751 mmHg 98%
21:00 +23°C° 0 mm 0 mps 751 mmHg 98%
22:00 +23°C° 0 mm 0 mps 751 mmHg 98%
23:00 +23°C° 0 mm 0 mps 751 mmHg 98%

Day after tomorrow, 15 August, Saturday

Time Temperature Precipitation Wind Pressure Humidity
00:00 +23°C° 0 mm 0 mps 751 mmHg 98%
01:00 +23°C° 0 mm 0 mps 751 mmHg 98%
02:00 +23°C° 0.1 mm 0 mps 750 mmHg 98%
03:00 +23°C° 0.1 mm 0 mps 750 mmHg 99%
04:00 +23°C° 0.1 mm 0 mps 750 mmHg 99%
05:00 +23°C° 0.1 mm 0 mps 750 mmHg 99%
06:00 +23°C° 0.1 mm 0 mps 751 mmHg 98%
07:00 +23°C° 0.1 mm 0 mps 751 mmHg 98%
08:00 +24°C° 0 mm 0 mps 751 mmHg 96%
09:00 +24°C° 0 mm 0 mps 751 mmHg 94%
10:00 +25°C° 0 mm 0 mps 751 mmHg 92%
11:00 +26°C° 0.1 mm 0 mps 751 mmHg 87%
12:00 +29°C° 0.1 mm 1 mps 750 mmHg 81%
13:00 +30°C° 0.1 mm 1 mps 749 mmHg 76%
14:00 +31°C° 0 mm 1 mps 749 mmHg 73%
15:00 +29°C° 0 mm 0 mps 748 mmHg 70%
16:00 +30°C° 0 mm 0 mps 748 mmHg 67%
17:00 +28°C° 0.1 mm 0 mps 748 mmHg 73%
18:00 +27°C° 0.1 mm 0 mps 749 mmHg 80%
19:00 +25°C° 0.1 mm 0 mps 749 mmHg 87%
20:00 +25°C° 0.6 mm 0 mps 750 mmHg 89%
21:00 +24°C° 0.6 mm 0 mps 751 mmHg 92%
22:00 +24°C° 0.6 mm 0 mps 751 mmHg 94%
23:00 +23°C° 1 mm 0 mps 751 mmHg 95%

16 August, Sunday

Time Temperature Precipitation Wind Pressure Humidity
00:00 +23°C° 1 mm 0 mps 751 mmHg 96%
01:00 +23°C° 1 mm 0 mps 750 mmHg 96%
02:00 +23°C° 0.3 mm 0 mps 750 mmHg 97%
03:00 +23°C° 0.3 mm 0 mps 750 mmHg 97%
04:00 +23°C° 0.3 mm 0 mps 750 mmHg 98%
05:00 +23°C° 1.2 mm 0 mps 750 mmHg 98%
06:00 +23°C° 1.2 mm 0 mps 750 mmHg 98%
07:00 +25°C° 1.2 mm 1 mps 751 mmHg 99%
08:00 +26°C° 0.4 mm 1 mps 751 mmHg 96%
09:00 +27°C° 0.4 mm 1 mps 751 mmHg 93%
10:00 +27°C° 0.4 mm 1 mps 751 mmHg 91%
11:00 +29°C° 0.4 mm 1 mps 750 mmHg 86%
12:00 +30°C° 0.4 mm 1 mps 750 mmHg 81%
13:00 +31°C° 0.4 mm 1 mps 749 mmHg 77%
14:00 +31°C° 1.2 mm 1 mps 749 mmHg 80%
15:00 +30°C° 1.2 mm 1 mps 748 mmHg 84%
16:00 +30°C° 1.2 mm 1 mps 748 mmHg 87%
17:00 +29°C° 1 mm 1 mps 748 mmHg 90%
18:00 +28°C° 1 mm 1 mps 749 mmHg 93%
19:00 +24°C° 1 mm 0 mps 749 mmHg 96%
20:00 +24°C° 0.1 mm 0 mps 750 mmHg 96%
21:00 +24°C° 0.1 mm 0 mps 750 mmHg 96%
22:00 +24°C° 0.1 mm 0 mps 751 mmHg 97%
23:00 +24°C° 0.5 mm 0 mps 751 mmHg 97%

17 August, Monday

Time Temperature Precipitation Wind Pressure Humidity
00:00 +23°C° 0.5 mm 0 mps 750 mmHg 97%
01:00 +23°C° 0.5 mm 0 mps 750 mmHg 98%
02:00 +23°C° 0.3 mm 0 mps 750 mmHg 98%
03:00 +23°C° 0.3 mm 0 mps 750 mmHg 98%
04:00 +23°C° 0.3 mm 0 mps 749 mmHg 98%
05:00 +23°C° 0 mm 0 mps 750 mmHg 97%
06:00 +23°C° 0 mm 0 mps 750 mmHg 97%
07:00 +24°C° 0 mm 0 mps 751 mmHg 97%
08:00 +26°C° 0.2 mm 0 mps 751 mmHg 87%
09:00 +28°C° 0.2 mm 0 mps 751 mmHg 78%
10:00 +30°C° 0.2 mm 0 mps 751 mmHg 69%
11:00 +33°C° 0.3 mm 1 mps 750 mmHg 66%
12:00 +33°C° 0.3 mm 1 mps 749 mmHg 62%
13:00 +34°C° 0.3 mm 1 mps 749 mmHg 58%
14:00 +34°C° 0.4 mm 1 mps 748 mmHg 62%
15:00 +33°C° 0.4 mm 1 mps 748 mmHg 66%
16:00 +33°C° 0.4 mm 1 mps 748 mmHg 70%
17:00 +31°C° 1.1 mm 1 mps 748 mmHg 78%
18:00 +29°C° 1.1 mm 1 mps 749 mmHg 86%
19:00 +27°C° 1.1 mm 1 mps 749 mmHg 95%
20:00 +25°C° 0.1 mm 0 mps 750 mmHg 95%
21:00 +24°C° 0.1 mm 0 mps 750 mmHg 95%
22:00 +24°C° 0.1 mm 0 mps 751 mmHg 96%
23:00 +24°C° 0 mm 0 mps 750 mmHg 96%

18 August, Tuesday

Time Temperature Precipitation Wind Pressure Humidity
00:00 +24°C° 0 mm 0 mps 750 mmHg 96%
01:00 +24°C° 0 mm 0 mps 750 mmHg 97%
02:00 +23°C° 0.6 mm 0 mps 750 mmHg 97%
03:00 +23°C° 0.6 mm 0 mps 750 mmHg 97%
04:00 +23°C° 0.6 mm 0 mps 749 mmHg 98%
05:00 +24°C° 0.1 mm 0 mps 750 mmHg 97%
06:00 +24°C° 0.1 mm 0 mps 750 mmHg 96%
07:00 +24°C° 0.1 mm 0 mps 751 mmHg 96%
08:00 +26°C° 0.3 mm 0 mps 751 mmHg 87%
09:00 +28°C° 0.3 mm 0 mps 751 mmHg 79%
10:00 +32°C° 0.3 mm 1 mps 751 mmHg 70%
11:00 +33°C° 0.6 mm 1 mps 750 mmHg 68%
12:00 +33°C° 0.6 mm 1 mps 750 mmHg 65%
13:00 +35°C° 0.6 mm 2 mps 749 mmHg 63%
14:00 +34°C° 0.9 mm 2 mps 749 mmHg 68%
15:00 +32°C° 0.9 mm 2 mps 748 mmHg 74%
16:00 +31°C° 0.9 mm 2 mps 748 mmHg 79%
17:00 +30°C° 0.1 mm 1 mps 748 mmHg 83%
18:00 +28°C° 0.1 mm 1 mps 749 mmHg 88%
19:00 +25°C° 0.1 mm 0 mps 749 mmHg 92%
20:00 +25°C° 0 mm 0 mps 750 mmHg 93%
21:00 +25°C° 0 mm 0 mps 750 mmHg 94%
22:00 +24°C° 0 mm 0 mps 751 mmHg 94%
23:00 +24°C° 0.8 mm 0 mps 751 mmHg 95%
Show more